EN

Hourly Weather Kytlym

Today, 1 August, Sunday

Time Temperature Precipitation Wind Pressure Humidity
00:00 +16°C° 0.7 mm 1 mps 718 mmHg 98%
01:00 +16°C° 0.7 mm 1 mps 718 mmHg 98%
02:00 +16°C° 0.3 mm 1 mps 718 mmHg 98%
03:00 +16°C° 0.3 mm 1 mps 718 mmHg 98%
04:00 +16°C° 0.3 mm 1 mps 718 mmHg 98%
05:00 +16°C° 0 mm 2 mps 718 mmHg 97%
06:00 +17°C° 0 mm 2 mps 718 mmHg 97%
07:00 +17°C° 0 mm 2 mps 718 mmHg 96%
08:00 +19°C° 0 mm 2 mps 719 mmHg 85%
09:00 +20°C° 0 mm 3 mps 719 mmHg 75%
10:00 +21°C° 0 mm 3 mps 719 mmHg 64%
11:00 +22°C° 0.1 mm 4 mps 719 mmHg 60%
12:00 +23°C° 0.1 mm 4 mps 719 mmHg 57%
13:00 +23°C° 0.1 mm 5 mps 720 mmHg 53%
14:00 +22°C° 0.2 mm 5 mps 720 mmHg 58%
15:00 +22°C° 0.2 mm 5 mps 720 mmHg 63%
16:00 +21°C° 0.2 mm 5 mps 720 mmHg 68%
17:00 +20°C° 0.2 mm 4 mps 720 mmHg 72%
18:00 +19°C° 0.2 mm 4 mps 720 mmHg 75%
19:00 +18°C° 0.2 mm 3 mps 720 mmHg 79%
20:00 +17°C° 0 mm 3 mps 721 mmHg 83%
21:00 +16°C° 0 mm 3 mps 721 mmHg 87%
22:00 +14°C° 0 mm 3 mps 721 mmHg 91%
23:00 +13°C° 0 mm 3 mps 721 mmHg 93%

Tomorrow, 2 August, Monday

Time Temperature Precipitation Wind Pressure Humidity
00:00 +14°C° 0 mm 2 mps 721 mmHg 94%
01:00 +14°C° 0 mm 2 mps 721 mmHg 96%
02:00 +13°C° 0 mm 2 mps 722 mmHg 96%
03:00 +13°C° 0 mm 2 mps 722 mmHg 96%
04:00 +13°C° 0 mm 2 mps 722 mmHg 96%
05:00 +14°C° 0 mm 2 mps 723 mmHg 92%
06:00 +15°C° 0 mm 2 mps 723 mmHg 87%
07:00 +16°C° 0 mm 2 mps 724 mmHg 83%
08:00 +17°C° 0 mm 2 mps 724 mmHg 77%
09:00 +18°C° 0 mm 2 mps 724 mmHg 70%
10:00 +19°C° 0 mm 2 mps 724 mmHg 64%
11:00 +20°C° 0 mm 3 mps 724 mmHg 59%
12:00 +21°C° 0 mm 3 mps 724 mmHg 54%
13:00 +22°C° 0 mm 3 mps 725 mmHg 49%
14:00 +22°C° 0 mm 3 mps 724 mmHg 50%
15:00 +22°C° 0 mm 4 mps 724 mmHg 52%
16:00 +22°C° 0 mm 4 mps 724 mmHg 54%
17:00 +21°C° 0 mm 3 mps 724 mmHg 62%
18:00 +20°C° 0 mm 2 mps 724 mmHg 70%
19:00 +20°C° 0 mm 1 mps 724 mmHg 78%
20:00 +19°C° 0.1 mm 1 mps 724 mmHg 84%
21:00 +18°C° 0.1 mm 1 mps 724 mmHg 89%
22:00 +15°C° 0.1 mm 1 mps 724 mmHg 95%
23:00 +15°C° 0 mm 1 mps 724 mmHg 96%

Day after tomorrow, 3 August, Tuesday

Time Temperature Precipitation Wind Pressure Humidity
00:00 +15°C° 0 mm 1 mps 724 mmHg 96%
01:00 +15°C° 0 mm 1 mps 724 mmHg 96%
02:00 +14°C° 0 mm 1 mps 724 mmHg 97%
03:00 +14°C° 0 mm 1 mps 724 mmHg 97%
04:00 +14°C° 0 mm 1 mps 724 mmHg 97%
05:00 +16°C° 0 mm 1 mps 724 mmHg 94%
06:00 +18°C° 0 mm 1 mps 725 mmHg 90%
07:00 +20°C° 0 mm 1 mps 725 mmHg 87%
08:00 +21°C° 0 mm 1 mps 725 mmHg 76%
09:00 +23°C° 0 mm 1 mps 725 mmHg 66%
10:00 +25°C° 0 mm 1 mps 725 mmHg 56%
11:00 +26°C° 0 mm 1 mps 725 mmHg 52%
12:00 +26°C° 0 mm 1 mps 725 mmHg 48%
13:00 +27°C° 0 mm 1 mps 725 mmHg 44%
14:00 +27°C° 0 mm 1 mps 725 mmHg 47%
15:00 +27°C° 0 mm 1 mps 725 mmHg 50%
16:00 +26°C° 0 mm 1 mps 725 mmHg 53%
17:00 +25°C° 0 mm 1 mps 725 mmHg 61%
18:00 +24°C° 0 mm 1 mps 725 mmHg 69%
19:00 +23°C° 0 mm 1 mps 725 mmHg 77%
20:00 +22°C° 0 mm 1 mps 725 mmHg 82%
21:00 +21°C° 0 mm 1 mps 725 mmHg 87%
22:00 +19°C° 0 mm 1 mps 725 mmHg 92%
23:00 +19°C° 0 mm 1 mps 725 mmHg 93%

4 August, Wednesday

Time Temperature Precipitation Wind Pressure Humidity
00:00 +19°C° 0 mm 1 mps 724 mmHg 94%
01:00 +19°C° 0 mm 1 mps 724 mmHg 94%
02:00 +18°C° 0 mm 1 mps 724 mmHg 94%
03:00 +18°C° 0 mm 1 mps 724 mmHg 93%
04:00 +18°C° 0 mm 1 mps 724 mmHg 93%
05:00 +20°C° 0 mm 1 mps 724 mmHg 87%
06:00 +21°C° 0 mm 1 mps 724 mmHg 81%
07:00 +23°C° 0 mm 1 mps 724 mmHg 75%
08:00 +25°C° 0 mm 2 mps 724 mmHg 66%
09:00 +27°C° 0 mm 2 mps 724 mmHg 56%
10:00 +29°C° 0 mm 2 mps 724 mmHg 47%
11:00 +29°C° 0 mm 2 mps 724 mmHg 46%
12:00 +30°C° 0 mm 3 mps 724 mmHg 46%
13:00 +30°C° 0 mm 3 mps 724 mmHg 45%
14:00 +30°C° 0 mm 3 mps 724 mmHg 44%
15:00 +30°C° 0 mm 3 mps 724 mmHg 43%
16:00 +31°C° 0 mm 3 mps 724 mmHg 42%
17:00 +29°C° 0 mm 2 mps 723 mmHg 52%
18:00 +27°C° 0 mm 2 mps 723 mmHg 61%
19:00 +26°C° 0 mm 1 mps 723 mmHg 71%
20:00 +24°C° 0 mm 1 mps 723 mmHg 75%
21:00 +23°C° 0 mm 1 mps 723 mmHg 79%
22:00 +21°C° 0 mm 1 mps 723 mmHg 84%
23:00 +20°C° 0.1 mm 2 mps 723 mmHg 87%

5 August, Thursday

Time Temperature Precipitation Wind Pressure Humidity
00:00 +19°C° 0.1 mm 2 mps 723 mmHg 90%
01:00 +18°C° 0.1 mm 2 mps 723 mmHg 92%
02:00 +18°C° 0 mm 2 mps 722 mmHg 93%
03:00 +18°C° 0 mm 2 mps 722 mmHg 94%
04:00 +18°C° 0 mm 2 mps 722 mmHg 94%
05:00 +19°C° 0 mm 2 mps 722 mmHg 90%
06:00 +19°C° 0 mm 2 mps 722 mmHg 86%
07:00 +20°C° 0 mm 2 mps 723 mmHg 82%
08:00 +21°C° 0 mm 2 mps 723 mmHg 76%
09:00 +22°C° 0 mm 3 mps 723 mmHg 70%
10:00 +24°C° 0 mm 3 mps 723 mmHg 64%
11:00 +25°C° 0 mm 3 mps 723 mmHg 61%
12:00 +25°C° 0 mm 4 mps 723 mmHg 57%
13:00 +26°C° 0 mm 4 mps 723 mmHg 54%
14:00 +25°C° 0.1 mm 4 mps 723 mmHg 57%
15:00 +23°C° 0.1 mm 4 mps 723 mmHg 60%
16:00 +22°C° 0.1 mm 4 mps 724 mmHg 64%
17:00 +21°C° 0 mm 4 mps 723 mmHg 69%
18:00 +20°C° 0 mm 3 mps 723 mmHg 74%
19:00 +19°C° 0 mm 3 mps 723 mmHg 79%
20:00 +18°C° 0 mm 2 mps 723 mmHg 85%
21:00 +16°C° 0 mm 2 mps 723 mmHg 91%
22:00 +15°C° 0 mm 2 mps 723 mmHg 97%
23:00 +15°C° 0 mm 2 mps 723 mmHg 97%

6 August, Friday

Time Temperature Precipitation Wind Pressure Humidity
00:00 +14°C° 0 mm 2 mps 723 mmHg 97%
01:00 +14°C° 0 mm 2 mps 723 mmHg 97%
02:00 +14°C° 0 mm 2 mps 723 mmHg 96%
03:00 +14°C° 0 mm 2 mps 723 mmHg 96%
04:00 +14°C° 0 mm 2 mps 723 mmHg 95%
05:00 +14°C° 0 mm 2 mps 724 mmHg 90%
06:00 +15°C° 0 mm 2 mps 724 mmHg 85%
07:00 +16°C° 0 mm 2 mps 724 mmHg 80%
08:00 +17°C° 0 mm 2 mps 724 mmHg 74%
09:00 +18°C° 0 mm 2 mps 724 mmHg 67%
10:00 +19°C° 0 mm 3 mps 725 mmHg 61%
11:00 +19°C° 0 mm 3 mps 725 mmHg 59%
12:00 +19°C° 0 mm 3 mps 725 mmHg 57%
13:00 +20°C° 0 mm 4 mps 725 mmHg 55%
14:00 +20°C° 0 mm 4 mps 725 mmHg 56%
15:00 +19°C° 0 mm 3 mps 725 mmHg 57%
16:00 +19°C° 0 mm 3 mps 725 mmHg 58%
17:00 +18°C° 0 mm 3 mps 725 mmHg 64%
18:00 +17°C° 0 mm 3 mps 725 mmHg 70%
19:00 +16°C° 0 mm 3 mps 726 mmHg 76%
20:00 +14°C° 0 mm 2 mps 726 mmHg 81%
21:00 +13°C° 0 mm 2 mps 726 mmHg 85%
22:00 +10°C° 0 mm 2 mps 726 mmHg 90%
23:00 +10°C° 0 mm 2 mps 726 mmHg 89%
Show more